STARLINK-1768 (46381 NORAD) Tracking and Keplerian Element Data

This shows tracking and keplerian element data for the satellite.

Feedback or suggestion? Click here.




ElementValue
Catalog46381
NameSTARLINK-1768
Epoch Orbit178
Epoch Day268.91668981
Epoch Year2020
RAAN324.4547
Inclination53.0007
Eccentricity0.0001175
Argument of Perigee58.2191
Mean Anonmoly176.0392
Mean Motion15.62735736
Decay Rate0.00025872
L11 46381U 20062BJ 20268.91668981 .00025872 00000-0 28767-3 0 9995
L22 46381 53.0007 324.4547 0001175 58.2191 176.0392 15.62735736 1787

Live tracking and technical data element details for STARLINK-1768 (NORAD 46381). STARLINK-1768 can be tracked NOW for your location showing map with azimuth and elevation plus other details from your city location.

Track the satellite on the map from your city or location and see movement details for azimuth, elevation, latitude, longitude, range, height, and movement on the map or in text.







IsCatalogInMostPopularTable: catalog: 46381, numindb: 3
Update: records affected: 1



GetName: 46381 STARLINK-1768

Hit Count: updated at: Sat, 26 Sep 2020 14:54:49 GMT